Weather History for Bethel, AK

Change the Weather History Date:

Thursday, September 27, 2012

  Actual Average Record
Temperature  
Mean Temperature 37 °F 40 °F  
Max Temperature 41 °F 47 °F 62 °F (1966)
Min Temperature 33 °F 34 °F 18 °F (1957)
Degree Days  
Heating Degree Days 28 25  
Month to date heating degree days 507  
Since 1 July heating degree days 1149  
Cooling Degree Days 0    
Month to date cooling degree days  
Year to date cooling degree days  
Moisture  
Dew Point 29 °F    
Average Humidity 75    
Maximum Humidity 89    
Minimum Humidity 57    
Precipitation  
Precipitation 0.00 in 0.09 in 0.93 in (1960)
Month to date precipitation 2.51  
Year to date precipitation 13.93  
Snow  
Snow 0.00 in 0.00 in 1.70 in (2004)
Month to date snowfall 0.4  
Since 1 July snowfall 0.4  
Since 1 September snowfall 0.4  
Snow Depth -    
Sea Level Pressure  
Sea Level Pressure 29.31 in    
Wind  
Wind Speed 21 mph (NNW)    
Max Wind Speed 29 mph    
Max Gust Speed 40 mph    
Visibility 10 miles    
Events Snow    
T = Trace of Precipitation, MM = Missing Value Source: NWS Daily Summary

Daily Weather History Graph

Daily Weather History Graph

Search for Another Location

Airport:

Trip Planner

Search our weather history database for the weather conditions in past years. The results will help you decide how hot, cold, wet, or windy it might be!

Date:

Astronomy

Sep. 27, 2012 Rise Set
Actual Time 8:45 AM AKDT 8:29 PM AKDT
Civil Twilight 8:02 AM AKDT 9:11 PM AKDT
Nautical Twilight 7:12 AM AKDT 10:01 PM AKDT
Astronomical Twilight 6:18 AM AKDT 10:55 PM AKDT
Moon 7:23 PM AKDT (9/27) 6:01 AM AKDT (9/27)
Length of Visible Light 13h 08m
Length of Day
11h 43m
Waxing Gibbous, 94% of the Moon is Illuminated
Sep 27
Waxing Gibbous
Sep 29
Full
Oct 7
Last Quarter
Oct 15
New
Oct 21
First Quarter

Hourly Weather History & Observations

Time (AKDT) Temp. Windchill Dew Point Humidity Pressure Visibility Wind Dir Wind Speed Gust Speed Precip Events Conditions
12:53 AM 36.0 °F 26.3 °F 32.0 °F 86% 29.16 in 10.0 mi NNW 16.1 mph - N/A   Clear
1:53 AM 36.0 °F 26.3 °F 30.9 °F 82% 29.16 in 10.0 mi NNW 16.1 mph - N/A   Clear
2:53 AM 36.0 °F 25.6 °F 30.9 °F 82% 29.17 in 10.0 mi NNW 18.4 mph - N/A   Scattered Clouds
3:53 AM 37.0 °F 25.9 °F 30.9 °F 79% 29.17 in 10.0 mi NNW 23.0 mph - N/A   Scattered Clouds
4:00 AM 37.4 °F 26.6 °F 30.2 °F 75% 29.17 in 10.0 mi NNW 21.9 mph - N/A   Mostly Cloudy
4:53 AM 37.0 °F 26.2 °F 30.9 °F 79% 29.19 in 10.0 mi NNW 21.9 mph 27.6 mph N/A   Overcast
5:26 AM 37.4 °F 26.4 °F 30.2 °F 75% 29.19 in 10.0 mi NNW 23.0 mph 29.9 mph N/A   Overcast
5:53 AM 37.0 °F 25.6 °F 30.0 °F 76% 29.19 in 10.0 mi NNW 24.2 mph - N/A   Overcast
6:53 AM 35.1 °F 23.3 °F 30.9 °F 85% 29.22 in 10.0 mi NNW 23.0 mph - N/A   Overcast
7:53 AM 34.0 °F 21.5 °F 30.0 °F 85% 29.23 in 4.0 mi NNW 24.2 mph 32.2 mph 0.00 in Snow Light Snow
8:53 AM 35.1 °F 24.5 °F 28.9 °F 78% 29.24 in 10.0 mi NW 18.4 mph 31.1 mph 0.00 in   Overcast
9:53 AM 34.0 °F 21.3 °F 30.0 °F 85% 29.26 in 10.0 mi NNW 25.3 mph 34.5 mph N/A   Mostly Cloudy
10:53 AM 37.0 °F 25.1 °F 30.9 °F 79% 29.29 in 10.0 mi NNW 26.5 mph 34.5 mph N/A   Overcast
11:53 AM 36.0 °F 23.5 °F 33.1 °F 89% 29.32 in 9.0 mi NNW 27.6 mph 34.5 mph 0.00 in   Overcast
12:53 PM 37.9 °F 25.9 °F 28.9 °F 70% 29.33 in 10.0 mi NNW 28.8 mph 40.3 mph 0.00 in   Mostly Cloudy
1:50 PM 39.2 °F 27.6 °F 28.4 °F 65% 29.34 in 9.0 mi NNW 28.8 mph 34.5 mph N/A   Overcast
1:53 PM 39.0 °F 27.8 °F 28.0 °F 65% 29.35 in 9.0 mi NNW 26.5 mph 34.5 mph N/A   Overcast
2:53 PM 39.9 °F 29.0 °F 26.1 °F 58% 29.37 in 10.0 mi NNW 26.5 mph 34.5 mph N/A   Mostly Cloudy
3:53 PM 39.0 °F 27.4 °F 28.9 °F 67% 29.37 in 10.0 mi NNW 28.8 mph 39.1 mph N/A   Mostly Cloudy
4:53 PM 39.0 °F 27.8 °F 28.0 °F 65% 29.39 in 10.0 mi NNW 26.5 mph 36.8 mph 0.00 in   Mostly Cloudy
5:53 PM 37.9 °F 27.6 °F 28.9 °F 70% 29.40 in 10.0 mi NNW 20.7 mph 33.4 mph N/A   Mostly Cloudy
6:53 PM 37.9 °F 25.9 °F 28.0 °F 68% 29.41 in 10.0 mi NNW 28.8 mph 36.8 mph 0.00 in   Mostly Cloudy
7:53 PM 37.0 °F 26.7 °F 28.0 °F 70% 29.42 in 10.0 mi NNW 19.6 mph 26.5 mph N/A   Mostly Cloudy
8:53 PM 35.1 °F 24.8 °F 27.0 °F 72% 29.44 in 10.0 mi NW 17.3 mph 33.4 mph N/A   Partly Cloudy
9:53 PM 34.0 °F 24.2 °F 28.9 °F 82% 29.46 in 10.0 mi NW 15.0 mph - N/A   Partly Cloudy
10:53 PM 33.1 °F 23.4 °F 28.0 °F 82% 29.48 in 10.0 mi NW 13.8 mph 25.3 mph N/A   Partly Cloudy
11:53 PM 33.1 °F 21.5 °F 28.0 °F 82% 29.49 in 10.0 mi NW 19.6 mph 26.5 mph N/A   Clear